This demonstration page uses our WeatherBlox Daily Observations layout. Learn more.

Left ArrowRight Arrow

39.01783, -85.05884

Hourly Observations for May 25, 2015

Temp ( °F °C ) Dew Point ( °F °C ) Humidity (%) Winds ( mph kmh ) Pressure ( in mb ) Visibility ( mi km ) Precip ( " mm )
12:52 am 00:52 Partly Cloudy 70 21.1 53 11.7 55 55 S 9 15 30.10 1019 10 16 0.00 0.00
1:52 am 01:52 Partly Cloudy 70 21.1 54 12.2 57 57 S 10 17 30.09 1019 10 16 0.00 0.00
2:52 am 02:52 Partly Cloudy 70 21.1 55 12.8 59 59 S 10 17 30.06 1018 10 16 0.00 0.00
3:52 am 03:52 Mostly Cloudy 69 20.6 55 12.8 61 61 S 12 19 30.06 1018 10 16 0.00 0.00
4:52 am 04:52 Partly Cloudy 70 21.1 56 13.3 61 61 S 10 17 30.06 1018 10 16 0.00 0.00
5:52 am 05:52 Mostly Cloudy with Light Rain 70 21.1 56 13.3 61 61 S 12 19 30.07 1018 10 16 0.00 0.03
6:52 am 06:52 Cloudy 68 20 57 13.9 68 68 S 8 13 30.08 1019 10 16 0.00 0.03
7:52 am 07:52 Cloudy 70 21.1 57 13.9 64 64 S 10 17 30.10 1019 10 16 0.00 0.00
8:52 am 08:52 Cloudy with Light Rain 69 20.6 60 15.6 73 73 SSW 15 24 30.13 1020 9 14 0.00 0.03
9:27 am 09:27 Cloudy with Rain 64 18 63 17 94 94 SSW 10 17 30.18 1022 2 3 0.05 1.27
9:48 am 09:48 Cloudy with Rain 64 18 63 17 94 94 SSW 14 22 30.15 1021 3 5 0.00 0.00
9:52 am 09:52 Cloudy with Light Rain 65 18.3 62 16.7 90 90 SSW 15 24 30.13 1020 3 5 0.15 3.81
10:52 am 10:52 Cloudy with Light Rain 66 18.9 63 17.2 90 90 SSW 12 19 30.13 1020 7 11 0.03 0.76
11:52 am 11:52 Cloudy 69 20.6 64 17.8 84 84 SSW 13 20 30.12 1020 10 16 0.00 0.03
12:52 pm 12:52 Cloudy 70 21.1 63 17.2 79 79 SSW 13 20 30.12 1020 10 16 0.00 0.00
1:30 pm 13:30 Cloudy with Light Rain 70 21 64 18 83 83 SSW 15 24 30.12 1020 10 16 0.00 0.00
1:52 pm 13:52 Cloudy with Light Rain 70 21.1 64 17.8 82 82 SW 13 20 30.14 1021 10 16 0.00 0.03
2:52 pm 14:52 Cloudy 72 22.2 65 18.3 79 79 SW 14 22 30.13 1020 10 16 0.00 0.03
3:17 pm 15:17 Cloudy 75 24 66 19 74 74 S 14 22 30.12 1020 10 16 0.00 0.00
3:52 pm 15:52 Cloudy 75 23.9 65 18.3 71 71 S 17 28 30.11 1020 10 16 0.00 0.00
4:52 pm 16:52 Mostly Cloudy 76 24.4 65 18.3 69 69 SW 14 22 30.10 1019 10 16 0.00 0.00
5:52 pm 17:52 Mostly Cloudy 74 23.3 64 17.8 71 71 SSW 16 26 30.09 1019 10 16 0.00 0.00
6:52 pm 18:52 Cloudy 73 22.8 64 17.8 74 74 SSW 10 17 30.09 1019 10 16 0.00 0.00
7:52 pm 19:52 Cloudy 72 22.2 64 17.8 76 76 SSW 5 7 30.08 1019 10 16 0.00 0.00
8:52 pm 20:52 Cloudy 71 21.7 64 17.8 79 79 Calm 30.07 1018 10 16 0.00 0.00
9:52 pm 21:52 Cloudy 70 21.1 64 17.8 82 82 Calm 30.08 1019 10 16 0.00 0.00
10:52 pm 22:52 Mostly Cloudy 71 21.7 64 17.8 79 79 S 9 15 30.09 1019 10 16 0.00 0.00
11:52 pm 23:52 Mostly Cloudy 69 20.6 64 17.8 84 84 S 6 9 30.11 1020 10 16 0.00 0.00

Powered by AerisWeather